{"data":{"norad_id":63939,"intl_designator":"2025-098P","name":"STARLINK-34020","alt_names":[],"object_type":"PAYLOAD","status":"ACTIVE","operator":null,"country":"US","launch_date":"2025-05-13","launch_site_code":"AFWTR","launch_vehicle":null,"mission":null,"orbit_class":"UNKNOWN","rcs_meters":null,"size_class":null,"mass_kg":null,"dimensions":null,"purposes":["comms"],"wikipedia_slug":null,"has_3d_model":false,"image_url":null,"decayed_at":null,"tle_current":{"epoch":"2026-05-25T04:00:03.998880Z","epoch_age_seconds":50865,"freshness":"FRESH","line1":"1 63939U 25098P   26145.16671295  .00031234  00000+0  26147-2 0  9993","line2":"2 63939  70.0008  81.5260 0003462 264.2102 344.1554 14.98315635  5704","mean_motion":14.98315635,"eccentricity":0.0003462,"inclination_deg":70.0008,"raan_deg":81.526,"arg_perigee_deg":264.2102,"mean_anomaly_deg":344.1554,"bstar":0.0026147,"rev_number":570,"period_min":96.107920545059,"perigee_km":569.69414171879,"apogee_km":574.50648603492,"semimajor_km":6950.2373138769,"source":"CELESTRAK","updated_at":"2026-05-25T13:38:20.185475Z"}}}